GW0483 Weather Reports


Display with metric or nautical units.
time (UTC)temp
F
wind
direction
speed
MPH
gust
MPH
rain 1hr
in
rain 24hr
in
rain mn
in
humidity
%
barometer
mb
20260508100738 61 67 0.0 1.0 0.00 0.00 0.00 85 1012.2
20260508100235 61 46 0.0 0.0 0.00 0.00 0.00 85 1012.6
20260508095731 61 35 1.0 1.0 0.00 0.00 0.00 85 1011.8
20260508095229 61 65 0.0 1.0 0.00 0.00 0.00 85 1012.1
20260508094725 61 35 2.0 3.0 0.00 0.00 0.00 85 1012.2
20260508094222 61 34 0.0 1.0 0.00 0.00 0.00 85 1012.2
20260508093720 61 48 0.0 1.0 0.00 0.00 0.00 85 1012.0
20260508093218 61 74 0.0 0.0 0.00 0.00 0.00 85 1012.1
20260508092714 61 54 0.0 0.0 0.00 0.00 0.00 85 1012.1
20260508092212 61 40 0.0 1.0 0.00 0.00 0.00 85 1012.3
20260508091710 61 36 1.0 1.0 0.00 0.00 0.00 85 1012.4
20260508091207 61 60 0.0 0.0 0.00 0.00 0.00 85 1012.2
20260508090704 61 42 0.0 0.0 0.00 0.00 0.00 85 1012.3
20260508090202 61 53 0.0 0.0 0.00 0.00 0.00 86 1012.0
20260508085657 61 41 1.0 1.0 0.00 0.00 0.00 85 1012.8
20260508085155 61 28 1.0 1.0 0.00 0.00 0.00 86 1012.5
20260508084651 61 46 0.0 0.0 0.00 0.00 0.00 87 1012.3
20260508084149 61 37 0.0 1.0 0.00 0.00 0.00 87 1012.5
20260508083646 61 42 1.0 1.0 0.00 0.00 0.00 87 1012.4
20260508083144 61 62 0.0 0.0 0.00 0.00 0.00 87 1012.2
20260508082638 61 33 1.0 1.0 0.00 0.00 0.00 86 1012.5
20260508082136 61 53 0.0 0.0 0.00 0.00 0.00 86 1012.5
20260508081633 62 18 1.0 2.0 0.00 0.00 0.00 85 1012.9
20260508081129 62 42 0.0 0.0 0.00 0.00 0.00 84 1012.2
20260508080627 62 55 0.0 1.0 0.00 0.00 0.00 84 1012.4
20260508080125 62 59 0.0 0.0 0.00 0.00 0.00 83 1013.0
20260508075621 62 41 0.0 0.0 0.00 0.00 0.00 82 1012.9
20260508075118 62 44 0.0 1.0 0.00 0.00 0.00 82 1012.9
20260508074616 62 57 0.0 0.0 0.00 0.00 0.00 82 1012.9
20260508074113 62 49 0.0 0.0 0.00 0.00 0.00 82 1013.1
20260508073610 62 42 0.0 0.0 0.00 0.00 0.00 82 1013.1
20260508073108 62 54 0.0 0.0 0.00 0.00 0.00 82 1013.2
20260508072603 62 81 1.0 1.0 0.00 0.00 0.00 82 1013.2
20260508072100 62 43 0.0 0.0 0.00 0.00 0.00 82 1013.3
20260508071558 62 48 0.0 0.0 0.00 0.00 0.00 82 1013.4
20260508071056 62 48 0.0 0.0 0.00 0.00 0.00 81 1013.3
20260508070553 62 47 0.0 0.0 0.00 0.00 0.00 81 1013.5
20260508070052 62 31 1.0 1.0 0.00 0.00 0.00 81 1013.4
20260508065549 62 53 0.0 0.0 0.00 0.00 0.00 81 1013.2
20260508065047 62 41 1.0 1.0 0.00 0.00 0.00 80 1013.3
20260508064544 62 48 1.0 1.0 0.00 0.00 0.00 80 1013.2
20260508064042 62 55 1.0 1.0 0.00 0.00 0.00 81 1013.2
20260508063539 62 59 1.0 1.0 0.00 0.00 0.00 81 1012.8
20260508063037 62 22 2.0 2.0 0.00 0.00 0.00 81 1012.2
20260508062534 62 57 0.0 0.0 0.00 0.00 0.00 81 1012.3
20260508062031 62 29 1.0 1.0 0.00 0.00 0.00 81 1012.9
20260508061529 62 29 1.0 2.0 0.00 0.00 0.00 81 1013.3
20260508061025 62 68 0.0 0.0 0.00 0.00 0.00 81 1013.5
20260508060522 62 61 0.0 0.0 0.00 0.00 0.00 80 1013.5
20260508060020 62 49 0.0 0.0 0.00 0.00 0.00 81 1013.5
20260508055515 62 90 0.0 1.0 0.00 0.00 0.00 80 1013.3
20260508055012 62 66 0.0 0.0 0.00 0.00 0.00 79 1013.7
20260508054509 62 51 0.0 0.0 0.00 0.00 0.00 79 1013.7
20260508054006 62 49 0.0 0.0 0.00 0.00 0.00 79 1013.5
20260508053502 62 49 0.0 1.0 0.00 0.00 0.00 79 1013.7
20260508053001 62 58 0.0 0.0 0.00 0.00 0.00 79 1013.9
20260508052458 62 44 1.0 1.0 0.00 0.00 0.00 79 1013.4
20260508051954 62 73 1.0 1.0 0.00 0.00 0.00 79 1013.7
20260508051450 62 44 0.0 0.0 0.00 0.00 0.00 79 1013.8
20260508050946 62 54 1.0 1.0 0.00 0.00 0.00 79 1014.1
20260508050442 62 31 3.0 3.0 0.00 0.00 0.00 79 1014.0
20260508045939 62 0 3.0 5.0 0.00 0.03 0.03 80 1014.3
20260508045437 62 24 2.0 3.0 0.00 0.03 0.03 81 1013.9
20260508044934 62 59 0.0 0.0 0.00 0.03 0.03 80 1013.8
20260508044431 61 31 0.0 1.0 0.00 0.03 0.03 81 1013.5
20260508043926 61 48 0.0 0.0 0.00 0.03 0.03 81 1013.4
20260508043424 62 57 0.0 0.0 0.00 0.03 0.03 81 1012.6
20260508042920 62 105 1.0 1.0 0.00 0.03 0.03 80 1012.4
20260508042418 62 60 0.0 0.0 0.00 0.03 0.03 80 1012.4
20260508041915 62 62 0.0 0.0 0.00 0.03 0.03 80 1012.3
20260508041411 62 262 1.0 1.0 0.00 0.03 0.03 81 1012.4
20260508040908 62 73 0.0 0.0 0.00 0.03 0.03 80 1012.4
20260508040405 62 51 0.0 1.0 0.00 0.03 0.03 81 1012.4
20260508035903 62 82 0.0 1.0 0.00 0.03 0.03 81 1012.5
20260508035400 62 46 0.0 0.0 0.00 0.03 0.03 81 1013.2
20260508034856 62 65 0.0 0.0 0.00 0.03 0.03 81 1013.0
20260508034354 62 43 0.0 1.0 0.00 0.03 0.03 80 1013.4
20260508033850 63 61 0.0 0.0 0.00 0.03 0.03 80 1013.8
20260508033349 63 50 0.0 0.0 0.00 0.03 0.03 79 1013.9
20260508032846 63 51 0.0 0.0 0.00 0.03 0.03 80 1013.7
20260508032343 63 49 0.0 0.0 0.00 0.03 0.03 80 1013.8
20260508031839 63 47 0.0 0.0 0.00 0.03 0.03 79 1014.0
20260508031336 63 47 0.0 0.0 0.00 0.03 0.03 79 1014.1
20260508030833 63 66 0.0 0.0 0.00 0.03 0.03 79 1014.2
20260508030330 63 49 0.0 0.0 0.00 0.03 0.03 77 1014.1
20260508025827 63 42 2.0 2.0 0.00 0.03 0.03 78 1014.2
20260508025324 62 15 1.0 2.0 0.00 0.03 0.03 78 1014.3
20260508024821 62 28 1.0 1.0 0.00 0.03 0.03 78 1014.1
20260508024317 62 38 0.0 1.0 0.00 0.03 0.03 78 1014.1
20260508023814 62 44 0.0 0.0 0.00 0.03 0.03 78 1014.2
20260508023310 62 34 1.0 1.0 0.00 0.03 0.03 78 1013.9
20260508022807 63 48 0.0 1.0 0.00 0.03 0.03 77 1013.8
20260508022306 62 62 0.0 0.0 0.00 0.03 0.03 77 1013.3
20260508021801 62 66 0.0 1.0 0.00 0.03 0.03 77 1013.0
20260508021256 62 133 3.0 3.0 0.00 0.03 0.03 77 1012.2
20260508020752 63 134 3.0 3.0 0.00 0.03 0.03 78 1012.8
20260508020251 63 42 0.0 1.0 0.00 0.03 0.03 77 1013.0
20260508015747 63 93 2.0 2.0 0.00 0.03 0.03 76 1012.8
20260508015244 63 44 0.0 0.0 0.00 0.03 0.03 75 1012.8
20260508014741 63 75 1.0 2.0 0.00 0.03 0.03 75 1012.1
20260508014238 63 36 3.0 3.0 0.00 0.03 0.03 76 1011.6
20260508013734 63 62 1.0 1.0 0.00 0.03 0.03 75 1011.8
20260508013231 63 69 1.0 1.0 0.00 0.03 0.03 76 1012.0
20260508012728 64 58 1.0 1.0 0.00 0.03 0.03 75 1012.1
20260508012224 64 28 1.0 2.0 0.00 0.03 0.03 74 1012.2
20260508011723 64 105 0.0 1.0 0.00 0.03 0.03 73 1012.0
20260508011220 64 14 1.0 1.0 0.00 0.03 0.03 73 1012.5
20260508010716 64 41 1.0 1.0 0.00 0.03 0.03 73 1012.3
20260508010215 64 6 3.0 5.0 0.00 0.03 0.03 72 1012.3
20260508005712 64 44 2.0 2.0 0.00 0.03 0.03 71 1011.6
20260508005208 64 164 4.0 6.0 0.00 0.03 0.03 72 1010.7
20260508004704 64 139 4.0 7.0 0.00 0.03 0.03 72 1010.1
20260508004200 65 146 5.0 6.0 0.00 0.03 0.03 72 1010.3
20260508003657 65 183 3.0 5.0 0.00 0.03 0.03 72 1010.9
20260508003155 65 160 3.0 5.0 0.00 0.03 0.03 72 1011.1
20260508002651 65 58 2.0 3.0 0.00 0.03 0.03 72 1011.7
20260508002149 66 73 0.0 0.0 0.00 0.03 0.03 71 1011.9
20260508001644 66 87 1.0 2.0 0.00 0.03 0.03 71 1012.0
20260508001140 66 113 1.0 1.0 0.00 0.03 0.03 69 1012.6
20260508000636 66 39 0.0 1.0 0.00 0.03 0.03 69 1012.8
20260508000133 66 115 1.0 1.0 0.00 0.03 0.03 69 1012.9
20260507235630 67 89 1.0 2.0 0.00 0.03 0.03 69 1013.3
20260507235128 67 54 2.0 3.0 0.00 0.03 0.03 66 1013.5
20260507234624 68 57 0.0 0.0 0.00 0.03 0.03 67 1013.3
20260507234120 68 47 0.0 0.0 0.00 0.03 0.03 65 1013.3
20260507233617 69 39 1.0 2.0 0.00 0.03 0.03 64 1013.4
20260507233116 70 61 0.0 0.0 0.00 0.03 0.03 63 1013.7
20260507232613 70 18 1.0 2.0 0.00 0.03 0.03 62 1013.7
20260507232110 69 152 2.0 3.0 0.00 0.03 0.03 63 1013.8
20260507231606 69 82 1.0 2.0 0.00 0.03 0.03 60 1013.8
20260507231103 70 357 5.0 7.0 0.00 0.03 0.03 59 1013.8
20260507230559 71 10 1.0 1.0 0.00 0.03 0.03 62 1013.9
20260507230056 70 40 1.0 1.0 0.00 0.03 0.03 63 1013.6
20260507225551 72 35 1.0 2.0 0.00 0.03 0.03 63 1013.6
20260507225048 71 113 1.0 2.0 0.00 0.03 0.03 63 1013.6
20260507224543 70 26 1.0 1.0 0.00 0.03 0.03 64 1013.9
20260507224040 69 70 3.0 5.0 0.00 0.03 0.03 65 1013.9
20260507223537 69 52 0.0 1.0 0.00 0.03 0.03 64 1014.1
20260507223034 70 193 3.0 3.0 0.00 0.03 0.03 63 1013.9
20260507222531 70 59 1.0 1.0 0.00 0.03 0.03 64 1013.8
20260507222027 68 89 1.0 2.0 0.00 0.03 0.03 66 1013.7
20260507221523 68 147 1.0 2.0 0.00 0.03 0.03 67 1013.6
20260507221020 68 43 2.0 3.0 0.00 0.03 0.03 68 1013.9
20260507220518 68 98 2.0 3.0 0.00 0.03 0.03 68 1014.2
20260507220015 67 43 1.0 3.0 0.00 0.03 0.03 67 1014.5
20260507215511 68 64 1.0 1.0 0.00 0.03 0.03 67 1014.3
20260507215009 68 53 1.0 2.0 0.00 0.03 0.03 66 1014.4
20260507214506 69 40 1.0 2.0 0.00 0.03 0.03 65 1014.0
20260507214001 69 134 2.0 6.0 0.00 0.03 0.03 65 1014.1
20260507213458 69 40 1.0 1.0 0.00 0.03 0.03 66 1014.3
20260507212955 68 0 4.0 6.0 0.00 0.03 0.03 65 1014.3
20260507212450 69 66 1.0 2.0 0.00 0.03 0.03 68 1014.6
20260507211948 68 43 4.0 6.0 0.00 0.03 0.03 67 1014.6
20260507211444 68 353 3.0 3.0 0.00 0.03 0.03 67 1014.6
20260507210941 68 145 3.0 5.0 0.00 0.03 0.03 67 1014.3
20260507210438 68 126 5.0 6.0 0.00 0.03 0.03 66 1014.0
20260507205935 69 89 5.0 7.0 0.00 0.03 0.03 67 1013.9
20260507205432 69 51 3.0 7.0 0.00 0.03 0.03 67 1014.2
20260507204928 70 41 1.0 2.0 0.00 0.03 0.03 66 1014.5
20260507204424 70 6 1.0 2.0 0.00 0.03 0.03 66 1014.1
20260507203922 69 296 3.0 5.0 0.00 0.03 0.03 67 1014.8
20260507203420 70 3 2.0 3.0 0.00 0.03 0.03 67 1014.4
20260507202916 69 52 1.0 1.0 0.00 0.03 0.03 68 1013.7
20260507202413 69 117 3.0 5.0 0.00 0.03 0.03 69 1014.0
20260507201908 68 358 2.0 3.0 0.00 0.03 0.03 70 1014.3
20260507201404 68 46 1.0 1.0 0.00 0.03 0.03 72 1014.1
20260507200901 68 159 3.0 5.0 0.00 0.03 0.03 71 1014.1
20260507200356 68 109 3.0 3.0 0.00 0.03 0.03 71 1014.1
20260507195852 68 16 2.0 3.0 0.00 0.03 0.03 70 1014.3
20260507195350 69 37 0.0 1.0 0.00 0.03 0.03 71 1014.3
20260507194847 68 33 1.0 2.0 0.00 0.03 0.03 73 1014.5
20260507194344 68 28 1.0 2.0 0.00 0.03 0.03 78 1014.5
20260507193840 67 41 2.0 2.0 0.00 0.03 0.03 80 1014.6
20260507193338 64 61 2.0 3.0 0.00 0.03 0.03 84 1014.7
20260507192833 63 71 2.0 2.0 0.00 0.03 0.03 87 1014.7
20260507192330 62 30 5.0 7.0 0.00 0.03 0.03 94 1014.3
20260507191827 62 44 3.0 5.0 0.00 0.03 0.03 96 1014.3
20260507191323 62 62 1.0 2.0 0.00 0.03 0.03 96 1014.3
20260507190820 62 25 1.0 2.0 0.00 0.03 0.03 96 1014.4
20260507190318 62 50 0.0 0.0 0.00 0.03 0.03 96 1014.9
20260507185817 61 64 1.0 1.0 0.00 0.03 0.03 96 1014.8
20260507185313 61 138 1.0 2.0 0.00 0.03 0.03 96 1014.7
20260507184810 61 78 1.0 2.0 0.00 0.03 0.03 95 1015.2
20260507184309 61 25 1.0 2.0 0.00 0.03 0.03 95 1015.3
20260507183805 61 331 3.0 3.0 0.05 0.03 0.03 93 1015.4
20260507183302 62 6 2.0 2.0 0.17 0.03 0.03 91 1015.5
20260507182759 63 45 1.0 1.0 0.12 0.02 0.02 88 1015.3
20260507182254 63 51 0.0 1.0 0.00 0.00 0.00 84 1015.8
20260507181751 63 54 1.0 2.0 0.00 0.00 0.00 82 1016.1
20260507181247 63 11 1.0 2.0 0.00 0.00 0.00 82 1016.3
20260507180744 63 12 2.0 2.0 0.00 0.00 0.00 82 1016.3
20260507180241 64 28 2.0 3.0 0.00 0.00 0.00 80 1016.1
20260507175736 65 355 2.0 3.0 0.00 0.00 0.00 79 1016.2
20260507175234 65 44 0.0 0.0 0.00 0.00 0.00 78 1016.0
20260507174731 65 44 4.0 6.0 0.00 0.00 0.00 78 1015.5
20260507174229 65 70 2.0 3.0 0.00 0.00 0.00 79 1015.8
20260507173726 64 11 3.0 6.0 0.00 0.00 0.00 80 1015.8
20260507173223 64 62 3.0 6.0 0.00 0.00 0.00 80 1015.7
20260507172720 64 92 1.0 1.0 0.00 0.00 0.00 82 1015.7
20260507172217 63 89 3.0 5.0 0.00 0.00 0.00 82 1015.5
20260507171716 64 39 2.0 3.0 0.00 0.00 0.00 82 1015.9
20260507171214 64 51 1.0 2.0 0.00 0.00 0.00 83 1015.8
20260507170711 62 55 1.0 1.0 0.00 0.00 0.00 85 1015.7
20260507170208 61 118 1.0 2.0 0.00 0.00 0.00 86 1015.7
20260507165703 61 66 1.0 3.0 0.00 0.00 0.00 87 1015.8
20260507165200 60 5 0.0 1.0 0.00 0.00 0.00 88 1016.0
20260507164656 60 12 3.0 6.0 0.00 0.00 0.00 88 1016.0
20260507164153 60 28 2.0 2.0 0.00 0.00 0.00 88 1016.7
20260507163650 60 53 2.0 5.0 0.00 0.00 0.00 88 1016.3
20260507163148 60 106 5.0 7.0 0.00 0.00 0.00 88 1016.0
20260507162644 60 335 3.0 3.0 0.00 0.00 0.00 89 1016.1
20260507162140 60 57 2.0 3.0 0.00 0.00 0.00 88 1016.2
20260507161636 60 48 1.0 2.0 0.00 0.00 0.00 88 1015.9
20260507161133 60 20 1.0 3.0 0.00 0.00 0.00 89 1016.4
20260507160629 59 74 1.0 3.0 0.00 0.00 0.00 90 1016.0
20260507160126 59 164 2.0 2.0 0.00 0.00 0.00 90 1016.2
20260507155622 59 62 3.0 5.0 0.00 0.00 0.00 91 1016.2
20260507155119 59 36 2.0 2.0 0.00 0.00 0.00 91 1016.2
20260507154615 59 1 2.0 2.0 0.00 0.00 0.00 91 1016.6
20260507154113 58 39 2.0 3.0 0.00 0.00 0.00 91 1016.2
20260507153609 58 162 1.0 2.0 0.00 0.00 0.00 92 1015.9
20260507153106 58 139 2.0 3.0 0.00 0.00 0.00 92 1016.0
20260507152602 58 82 1.0 1.0 0.00 0.00 0.00 92 1016.2
20260507152058 58 94 1.0 2.0 0.00 0.00 0.00 92 1016.3
20260507151554 58 33 5.0 7.0 0.00 0.00 0.00 92 1016.2
20260507151051 58 48 2.0 6.0 0.00 0.00 0.00 93 1016.0
20260507150549 58 62 1.0 2.0 0.00 0.00 0.00 92 1016.2
20260507150045 58 53 1.0 2.0 0.00 0.00 0.00 92 1016.1
20260507145540 58 344 2.0 3.0 0.00 0.00 0.00 92 1015.9
20260507145038 59 50 5.0 9.0 0.00 0.00 0.00 92 1015.9
20260507144534 58 80 4.0 6.0 0.00 0.00 0.00 93 1015.5
20260507144032 58 69 2.0 3.0 0.00 0.00 0.00 94 1015.3
20260507143529 58 10 1.0 2.0 0.00 0.00 0.00 94 1015.8
20260507143027 57 141 2.0 3.0 0.00 0.00 0.00 94 1016.2
20260507142522 57 6 2.0 3.0 0.00 0.00 0.00 94 1016.4
20260507142019 57 75 3.0 3.0 0.00 0.00 0.00 94 1016.0
20260507141515 57 347 5.0 10.0 0.00 0.00 0.00 94 1015.7
20260507141012 58 69 2.0 3.0 0.00 0.00 0.00 95 1016.1
20260507140508 58 43 2.0 2.0 0.00 0.00 0.00 95 1016.1
20260507140006 58 74 1.0 2.0 0.00 0.00 0.00 95 1016.0
20260507135503 57 338 6.0 9.0 0.00 0.00 0.00 95 1016.2
20260507135000 57 56 7.0 9.0 0.00 0.00 0.00 96 1016.2
20260507134456 57 83 1.0 1.0 0.00 0.00 0.00 95 1016.1
20260507133952 57 63 2.0 3.0 0.00 0.00 0.00 95 1016.4
20260507133448 57 280 1.0 2.0 0.00 0.00 0.00 95 1016.3
20260507132947 58 38 1.0 2.0 0.00 0.00 0.00 95 1015.7
20260507132442 58 100 2.0 2.0 0.00 0.00 0.00 95 1016.1
20260507131939 58 82 4.0 6.0 0.00 0.00 0.00 94 1015.8
20260507131436 58 17 5.0 7.0 0.00 0.00 0.00 94 1015.7
20260507130933 58 95 1.0 1.0 0.00 0.00 0.00 93 1015.7
20260507130431 58 28 1.0 3.0 0.00 0.00 0.00 93 1015.5
20260507125929 58 109 1.0 2.0 0.00 0.00 0.00 93 1015.9
20260507125427 58 13 2.0 3.0 0.00 0.00 0.00 93 1015.5
20260507124924 58 0 4.0 7.0 0.00 0.00 0.00 93 1015.8
20260507124420 58 53 2.0 3.0 0.00 0.00 0.00 93 1015.3
20260507123918 58 53 2.0 3.0 0.00 0.00 0.00 93 1015.4
20260507123415 58 96 2.0 2.0 0.00 0.00 0.00 93 1015.3
20260507122912 58 76 1.0 1.0 0.00 0.00 0.00 93 1015.4
20260507122407 58 63 3.0 6.0 0.00 0.00 0.00 93 1015.2
20260507121904 58 62 2.0 2.0 0.00 0.00 0.00 93 1015.1
20260507121359 58 23 5.0 6.0 0.00 0.00 0.00 93 1014.9
20260507120856 58 114 3.0 3.0 0.00 0.00 0.00 93 1014.8
20260507120352 58 33 1.0 2.0 0.00 0.00 0.00 92 1014.6
20260507115848 59 40 5.0 7.0 0.00 0.00 0.00 92 1014.8
20260507115344 59 91 5.0 8.0 0.00 0.00 0.00 92 1014.6
20260507114840 59 30 2.0 2.0 0.00 0.00 0.00 91 1014.4
20260507114337 59 135 3.0 3.0 0.00 0.00 0.00 91 1014.3
20260507113835 59 50 5.0 7.0 0.00 0.00 0.00 91 1014.3
20260507113332 59 37 1.0 3.0 0.00 0.00 0.00 91 1014.3
20260507112829 59 317 4.0 6.0 0.00 0.00 0.00 90 1014.4
20260507112326 59 50 3.0 7.0 0.00 0.00 0.00 90 1014.2
20260507111824 59 58 5.0 7.0 0.00 0.00 0.00 90 1014.0
20260507111320 59 48 6.0 8.0 0.00 0.00 0.00 90 1014.0
20260507110816 59 42 5.0 7.0 0.00 0.00 0.00 89 1013.9
20260507110313 60 57 3.0 5.0 0.00 0.00 0.00 89 1013.6
20260507105810 60 17 4.0 7.0 0.00 0.00 0.00 89 1013.9
20260507105307 60 45 1.0 1.0 0.00 0.00 0.00 89 1013.9
20260507104803 60 10 0.0 1.0 0.00 0.00 0.00 89 1013.8
20260507104300 60 111 1.0 2.0 0.00 0.00 0.00 89 1014.1
20260507103756 60 105 2.0 3.0 0.00 0.00 0.00 89 1014.2
20260507103252 60 29 0.0 1.0 0.00 0.00 0.00 89 1014.1
20260507102749 60 55 4.0 6.0 0.00 0.00 0.00 89 1014.0
20260507102246 60 59 0.0 1.0 0.00 0.00 0.00 89 1014.1
20260507101742 60 34 3.0 3.0 0.00 0.00 0.00 89 1013.8
20260507101237 60 32 1.0 2.0 0.00 0.00 0.00 89 1013.9